Weather History for KBBD - August, 2013

Change the Weather History Date:

Friday, August 23, 2013

  Actual Average (KJCT) Record (KJCT)
Temperature  
Mean Temperature 84 °F -  
Max Temperature 96 °F 90 °F 105 °F (2010)
Min Temperature 73 °F 68 °F 66 °F (2003)
Cooling Degree Days 20    
Growing Degree Days 34 (Base 50)    
Moisture  
Dew Point 64 °F    
Average Humidity 54    
Maximum Humidity 78    
Minimum Humidity 32    
Precipitation  
Precipitation 0.00 in - - ()
Sea Level Pressure  
Sea Level Pressure 30.03 in    
Wind  
Wind Speed 5 mph (SE)    
Max Wind Speed 14 mph    
Max Gust Speed -    
Visibility 10 miles    
Events      
Averages and records for this station are not official NWS values.
T = Trace of Precipitation, MM = Missing Value Source: NWS Daily Summary

Daily Weather History Graph

Daily Weather History Graph

Search for Another Location

Airport or City:

Trip Planner

Search our weather history database for the weather conditions in past years. The results will help you decide how hot, cold, wet, or windy it might be!

Date:

Astronomy

Aug. 23, 2013 Rise Set
Actual Time 7:08 AM CDT 8:11 PM CDT
Civil Twilight 6:43 AM CDT 8:36 PM CDT
Nautical Twilight 6:13 AM CDT 9:05 PM CDT
Astronomical Twilight 5:42 AM CDT 9:36 PM CDT
Moon 9:48 PM CDT 9:49 AM CDT
Length of Visible Light 13h 52m
Length of Day
13h 02m
Waning Gibbous, 91% of the Moon is Illuminated
Aug 23
Waning Gibbous
Aug 28
Last Quarter
Sep 5
New
Sep 12
First Quarter
Sep 19
Full

Hourly Weather History & Observations

Time (CDT) Temp. Heat Index Dew Point Humidity Pressure Visibility Wind Dir Wind Speed Gust Speed Precip Events Conditions
12:15 AM 80.6 °F 82.3 °F 64.4 °F 58% 30.06 in 10.0 mi ESE 4.6 mph - N/A   Clear
12:35 AM 80.6 °F 82.3 °F 64.4 °F 58% 30.05 in 10.0 mi SE 3.5 mph - N/A   Clear
12:55 AM 80.6 °F 82.3 °F 64.4 °F 58% 30.05 in 10.0 mi SE 4.6 mph - N/A   Clear
1:15 AM 78.8 °F - 64.4 °F 61% 30.05 in 10.0 mi SE 4.6 mph - N/A   Clear
1:35 AM 78.8 °F - 64.4 °F 61% 30.05 in 10.0 mi SE 4.6 mph - N/A   Clear
1:55 AM 78.8 °F - 62.6 °F 57% 30.05 in 10.0 mi SE 4.6 mph - N/A   Clear
2:15 AM 78.8 °F - 62.6 °F 57% 30.05 in 10.0 mi SE 5.8 mph - N/A   Clear
2:35 AM 77.0 °F - 62.6 °F 61% 30.04 in 10.0 mi SSE 4.6 mph - N/A   Clear
2:55 AM 77.0 °F - 64.4 °F 65% 30.04 in 10.0 mi SE 4.6 mph - N/A   Clear
3:15 AM 75.2 °F - 64.4 °F 69% 30.04 in 10.0 mi SE 4.6 mph - N/A   Clear
3:35 AM 75.2 °F - 64.4 °F 69% 30.05 in 10.0 mi SSE 4.6 mph - N/A   Clear
3:55 AM 75.2 °F - 64.4 °F 69% 30.04 in 10.0 mi SE 3.5 mph - N/A   Clear
4:15 AM 75.2 °F - 64.4 °F 69% 30.04 in 10.0 mi SE 3.5 mph - N/A   Clear
4:35 AM 75.2 °F - 64.4 °F 69% 30.04 in 10.0 mi SE 4.6 mph - N/A   Clear
4:55 AM 75.2 °F - 64.4 °F 69% 30.05 in 10.0 mi SE 3.5 mph - N/A   Clear
5:15 AM 75.2 °F - 64.4 °F 69% 30.05 in 10.0 mi Calm Calm - N/A   Clear
5:35 AM 73.4 °F - 64.4 °F 73% 30.04 in 10.0 mi South 3.5 mph - N/A   Clear
5:55 AM 73.4 °F - 64.4 °F 73% 30.05 in 10.0 mi Calm Calm - N/A   Clear
6:15 AM 73.4 °F - 64.4 °F 73% 30.05 in 10.0 mi Calm Calm - N/A   Clear
6:35 AM 73.4 °F - 64.4 °F 73% 30.05 in 10.0 mi Calm Calm - N/A   Clear
6:55 AM 73.4 °F - 64.4 °F 73% 30.05 in 10.0 mi Calm Calm - N/A   Clear
7:15 AM 73.4 °F - 64.4 °F 73% 30.06 in 10.0 mi Calm Calm - N/A   Clear
7:35 AM 73.4 °F - 64.4 °F 73% 30.07 in 10.0 mi Calm Calm - N/A   Clear
7:55 AM 73.4 °F - 66.2 °F 78% 30.07 in 10.0 mi South 3.5 mph - N/A   Clear
8:15 AM 75.2 °F - 66.2 °F 73% 30.08 in 10.0 mi Calm Calm - N/A   Clear
8:35 AM 78.8 °F - 66.2 °F 65% 30.08 in 10.0 mi SE 3.5 mph - N/A   Clear
8:55 AM 78.8 °F - 66.2 °F 65% 30.08 in 10.0 mi South 5.8 mph - N/A   Clear
9:15 AM 80.6 °F 83.2 °F 68.0 °F 65% 30.08 in 10.0 mi South 6.9 mph - N/A   Clear
9:35 AM 82.4 °F 85.4 °F 68.0 °F 62% 30.09 in 10.0 mi SSE 4.6 mph - N/A   Clear
9:55 AM 82.4 °F 85.4 °F 68.0 °F 62% 30.08 in 10.0 mi SSE 5.8 mph - N/A   Clear
10:15 AM 84.2 °F 87.3 °F 68.0 °F 58% 30.08 in 10.0 mi SSE 4.6 mph - N/A   Clear
10:35 AM 86.0 °F 89.4 °F 68.0 °F 55% 30.09 in 10.0 mi Variable 3.5 mph - N/A   Clear
10:55 AM 87.8 °F 90.4 °F 66.2 °F 49% 30.08 in 10.0 mi East 4.6 mph - N/A   Clear
11:15 AM 87.8 °F 90.4 °F 66.2 °F 49% 30.08 in 10.0 mi ESE 5.8 mph - N/A   Clear
11:35 AM 87.8 °F 90.4 °F 66.2 °F 49% 30.08 in 10.0 mi Calm Calm - N/A   Scattered Clouds
11:55 AM 89.6 °F 92.2 °F 66.2 °F 46% 30.08 in 10.0 mi ESE 8.1 mph - N/A   Partly Cloudy
12:15 PM 91.4 °F 93.2 °F 64.4 °F 41% 30.07 in 10.0 mi East 6.9 mph - N/A   Clear
12:35 PM 91.4 °F 94.0 °F 66.2 °F 43% 30.07 in 10.0 mi SE 10.4 mph - N/A   Clear
12:55 PM 91.4 °F 93.2 °F 64.4 °F 41% 30.07 in 10.0 mi East 8.1 mph - N/A   Partly Cloudy
1:15 PM 91.4 °F 93.2 °F 64.4 °F 41% 30.06 in 10.0 mi ESE 10.4 mph - N/A   Partly Cloudy
1:35 PM 93.2 °F 94.9 °F 64.4 °F 38% 30.05 in 10.0 mi East 8.1 mph - N/A   Partly Cloudy
1:55 PM 93.2 °F 94.9 °F 64.4 °F 38% 30.04 in 10.0 mi East 11.5 mph - N/A   Partly Cloudy
2:15 PM 93.2 °F 94.9 °F 64.4 °F 38% 30.03 in 10.0 mi East 11.5 mph - N/A   Partly Cloudy
2:35 PM 95.0 °F 97.0 °F 64.4 °F 36% 30.02 in 10.0 mi SE 11.5 mph - N/A   Clear
2:55 PM 95.0 °F 96.0 °F 62.6 °F 34% 30.01 in 10.0 mi SE 10.4 mph - N/A   Partly Cloudy
3:15 PM 91.4 °F 92.1 °F 62.6 °F 38% 30.00 in 9.0 mi ESE 8.1 mph - N/A   Partly Cloudy
3:35 PM 95.0 °F 96.0 °F 62.6 °F 34% 29.99 in 10.0 mi ESE 11.5 mph - N/A   Partly Cloudy
3:55 PM 93.2 °F 93.3 °F 60.8 °F 34% 29.98 in 10.0 mi East 8.1 mph - N/A   Partly Cloudy
4:15 PM 96.8 °F 98.0 °F 62.6 °F 32% 29.97 in 10.0 mi ESE 13.8 mph - N/A   Scattered Clouds
4:35 PM 93.2 °F 93.3 °F 60.8 °F 34% 29.98 in 10.0 mi East 12.7 mph - N/A   Partly Cloudy
4:55 PM 95.0 °F 95.2 °F 60.8 °F 32% 29.97 in 10.0 mi ESE 9.2 mph - N/A   Partly Cloudy
5:15 PM 93.2 °F 94.1 °F 62.6 °F 36% 29.97 in 10.0 mi East 11.5 mph - N/A   Partly Cloudy
5:35 PM 91.4 °F 91.4 °F 60.8 °F 36% 29.97 in 10.0 mi East 11.5 mph - N/A   Clear
5:55 PM 91.4 °F 91.4 °F 60.8 °F 36% 29.97 in 10.0 mi ESE 9.2 mph - N/A   Clear
6:15 PM 91.4 °F 91.4 °F 60.8 °F 36% 29.97 in 10.0 mi East 10.4 mph - N/A   Clear
6:35 PM 91.4 °F 91.4 °F 60.8 °F 36% 29.98 in 10.0 mi East 8.1 mph - N/A   Clear
6:55 PM 91.4 °F 91.4 °F 60.8 °F 36% 29.98 in 10.0 mi East 5.8 mph - N/A   Clear
7:15 PM 91.4 °F 91.4 °F 60.8 °F 36% 29.98 in 10.0 mi ESE 4.6 mph - N/A   Scattered Clouds
7:35 PM 86.0 °F 87.3 °F 64.4 °F 48% 29.98 in 10.0 mi WSW 5.8 mph - N/A   Mostly Cloudy
7:55 PM 84.2 °F 85.6 °F 64.4 °F 51% 29.99 in 10.0 mi West 5.8 mph - N/A   Partly Cloudy
8:15 PM 82.4 °F 83.9 °F 64.4 °F 54% 29.99 in 10.0 mi Calm Calm - N/A   Clear
8:35 PM 82.4 °F 83.9 °F 64.4 °F 54% 29.99 in 10.0 mi Calm Calm - N/A   Clear
8:55 PM 80.6 °F 82.3 °F 64.4 °F 58% 30.00 in 10.0 mi WSW 6.9 mph - N/A   Clear
9:15 PM 80.6 °F 82.3 °F 64.4 °F 58% 30.01 in 10.0 mi SW 5.8 mph - N/A   Clear
9:35 PM 80.6 °F 82.3 °F 64.4 °F 58% 30.01 in 10.0 mi SW 3.5 mph - N/A   Clear
9:55 PM 80.6 °F 82.3 °F 64.4 °F 58% 30.02 in 10.0 mi West 3.5 mph - N/A   Clear
10:15 PM 78.8 °F - 64.4 °F 61% 30.02 in 10.0 mi Calm Calm - N/A   Clear
10:35 PM 78.8 °F - 64.4 °F 61% 30.02 in 10.0 mi NW 3.5 mph - N/A   Clear
10:55 PM 78.8 °F - 64.4 °F 61% 30.03 in 10.0 mi Calm Calm - N/A   Clear
11:15 PM 78.8 °F - 64.4 °F 61% 30.02 in 10.0 mi Calm Calm - N/A   Clear
11:35 PM 78.8 °F - 64.4 °F 61% 30.03 in 10.0 mi West 3.5 mph - N/A   Clear
11:55 PM 77.0 °F - 64.4 °F 65% 30.03 in 10.0 mi WNW 3.5 mph - N/A   Clear